Simultaneous Nadir Overpasses (SNOs) Predictions

Prediction of SNOs between AQUA and METOP-B Satellite Orbit:

Table of predicted SNOs for the next 14.0 days since TLE Epoch: 1/12/2018
Index Date (AQUA) Time (AQUA) Lat,Lon (AQUA) SZA (AQUA ) Date (METOP-B) Time (METOP-B) Lat,Lon (METOP-B) SZA (METOP-B ) Distance(km) Time Diff (sec)
1 01/12/2018 23:45:28 -73.91, -2.32 84.52 01/12/2018 23:46:19 -73.90, -2.24 84.54 2.83 51
2 01/15/2018 17:40:40 -73.40, 89.95 85.55 01/15/2018 17:39:31 -73.30, 88.11 85.56 59.66 69
3 01/15/2018 18:30:16 73.82,-103.32 94.90 01/15/2018 18:30:00 73.81,-103.37 94.90 1.85 16
4 01/15/2018 19:19:43 -73.91, 64.11 85.01 01/15/2018 19:20:40 -73.92, 64.22 85.01 3.44 57
5 01/18/2018 13:15:00 -73.61, 155.93 85.86 01/18/2018 13:13:48 -73.56, 155.12 85.86 26.02 72
6 01/18/2018 14:04:32 73.83, -36.91 94.37 01/18/2018 14:04:22 73.82, -36.93 94.37 0.86 10
7 01/18/2018 14:53:59 -73.92, 130.53 85.54 01/18/2018 14:55:03 -73.89, 130.55 85.58 3.55 64
8 01/21/2018 08:49:19 -73.79,-138.00 86.27 01/21/2018 08:48:06 -73.78,-137.98 86.27 1.32 73
9 01/21/2018 09:38:48 73.85, 29.49 93.79 01/21/2018 09:38:44 73.84, 29.51 93.79 1.00 4
10 01/21/2018 10:28:14 -73.88,-162.94 86.18 01/21/2018 10:29:25 -73.90,-163.01 86.17 3.01 71
11 01/24/2018 04:23:34 -73.81, -71.61 86.89 01/24/2018 04:22:27 -73.79, -71.54 86.90 2.89 67
12 01/24/2018 05:13:03 73.87, 95.88 93.18 01/24/2018 05:13:05 73.85, 95.95 93.15 3.12 2




NCC Satellite Simultaneous Nadir Overpasses (SNOs) Prediction Service
